Archiv-/Tagesdaten

--Timestamp---	Temp	Chill	HIndex	Humid	Dewpt	 Wind 	HiWind	WindDir	Rain 	Barom	Solar	 ET  	 UV 
--------------	----	-----	------	-----	-----	------	------	-------	-----	-----	-----	-----	----
20260508 00:00	10.6	10.6	10.6	83	7.8	0	0	-100000	0.0	1015.7	0	0.000	0.0
20260508 00:05	10.4	10.4	10.4	84	7.9	0	0	-100000	0.0	1015.6	0	0.000	0.0
20260508 00:10	10.3	10.3	10.3	84	7.7	0	0	-100000	0.0	1015.7	0	0.000	0.0
20260508 00:15	10.3	10.3	10.3	84	7.7	0	0	-100000	0.0	1015.7	0	0.000	0.0
20260508 00:20	10.2	10.2	10.2	84	7.6	0	0	-100000	0.0	1015.7	0	0.000	0.0
20260508 00:25	10.2	10.2	10.2	84	7.6	0	0	-100000	0.0	1015.8	0	0.000	0.0
20260508 00:30	10.1	10.1	10.1	85	7.7	0	0	-100000	0.0	1015.8	0	0.000	0.0
20260508 00:35	10.1	10.1	10.1	85	7.6	0	0	-100000	0.0	1015.8	0	0.000	0.0
20260508 00:40	10.1	10.1	10.1	85	7.6	0	0	-100000	0.0	1015.8	0	0.000	0.0
20260508 00:45	10.0	10.0	10.0	85	7.6	0	0	-100000	0.0	1015.7	0	0.000	0.0
20260508 00:50	10.1	10.1	10.1	85	7.6	0	0	-100000	0.0	1015.8	0	0.000	0.0
20260508 00:55	10.1	10.1	10.1	85	7.6	0	0	-100000	0.0	1015.7	0	0.000	0.0
20260508 01:00	10.0	10.0	10.0	85	7.6	0	0	-100000	0.0	1015.6	0	0.000	0.0
20260508 01:05	9.9	9.9	9.9	85	7.5	0	0	-100000	0.0	1015.4	0	0.000	0.0
20260508 01:10	9.9	9.9	9.9	85	7.5	0	0	-100000	0.0	1015.3	0	0.000	0.0
20260508 01:15	9.9	9.9	9.9	85	7.5	0	0	-100000	0.0	1015.2	0	0.000	0.0
20260508 01:20	9.9	9.9	9.9	85	7.5	0	0	-100000	0.0	1015.1	0	0.000	0.0
20260508 01:25	9.9	9.9	9.9	85	7.5	0	0	-100000	0.0	1014.9	0	0.000	0.0
20260508 01:30	10.0	10.0	10.0	86	7.8	0	0	-100000	0.0	1015.0	0	0.000	0.0
20260508 01:35	9.9	9.9	9.9	86	7.7	0	0	-100000	0.0	1014.9	0	0.000	0.0
20260508 01:40	9.9	9.9	9.9	85	7.5	0	0	-100000	0.0	1014.8	0	0.000	0.0
20260508 01:45	9.8	9.8	9.8	85	7.4	0	0	-100000	0.0	1014.8	0	0.000	0.0



Please note the license to use and transfer of this data:
https://creativecommons.org/licenses/by-nc-sa/3.0/deed.en

Bitte beachten sie die Lizenz zur Verwertung und Weitergabe der Daten:
https://creativecommons.org/licenses/by-nc-sa/3.0/deed.de

zurück zur Übersicht der Archivdaten (Monats und Tagesdaten)